EW2192 Weather Reports


Display with metric or nautical units.
time (UTC)temp
F
wind
direction
speed
MPH
gust
MPH
rain 1hr
in
rain 24hr
in
rain mn
in
humidity
%
barometer
mb
20260901163127 77 5 1.0 3.0 0.00 0.00 0.00 72 1012.2
20260901161551 76 5 0.0 2.0 0.00 0.00 0.00 71 1012.2
20260901160011 76 5 0.0 2.0 0.00 0.00 0.00 75 1012.2
20260901154635 75 5 1.0 4.0 0.00 0.00 0.00 77 1012.2
20260901153047 74 5 0.0 3.0 0.00 0.00 0.00 78 1012.3
20260901151503 73 5 0.0 2.0 0.00 0.00 0.00 82 1012.3
20260901150053 72 5 1.0 2.0 0.00 0.00 0.00 82 1012.3
20260901144514 70 5 1.0 3.0 0.00 0.00 0.00 86 1012.4
20260901143107 69 5 0.0 2.0 0.00 0.00 0.00 87 1012.3
20260901141517 67 5 0.0 2.0 0.00 0.00 0.00 90 1012.3
20260901140111 66 5 0.0 2.0 0.00 0.00 0.00 93 1012.6
20260901134525 65 5 0.0 1.0 0.00 0.00 0.00 95 1012.4
20260901133125 64 5 0.0 0.0 0.00 0.00 0.00 96 1012.3
20260901131547 62 5 0.0 2.0 0.00 0.00 0.00 96 1012.1
20260901130011 61 5 0.0 2.0 0.00 0.00 0.00 95 1011.9
20260901123036 60 5 0.0 0.0 0.00 0.00 0.00 95 1012.1
20260901121615 59 5 0.0 0.0 0.00 0.00 0.00 94 1012.0
20260901120031 59 5 0.0 0.0 0.00 0.00 0.00 94 1011.8
20260901114632 60 5 0.0 0.0 0.00 0.00 0.00 94 1011.8
20260901113051 60 5 0.0 0.0 0.00 0.00 0.00 94 1011.6
20260901111516 60 5 0.0 0.0 0.00 0.00 0.00 94 1011.4
20260901110113 60 5 0.0 0.0 0.00 0.00 0.00 94 1011.4
20260901104541 60 5 0.0 1.0 0.00 0.00 0.00 94 1011.3
20260901103135 61 5 0.0 1.0 0.00 0.00 0.00 94 1011.2
20260901101609 61 9 0.0 1.0 0.00 0.00 0.00 94 1010.8
20260901100018 61 5 0.0 0.0 0.00 0.00 0.00 93 1010.4
20260901094613 61 5 0.0 0.0 0.00 0.00 0.00 93 1010.4
20260901093027 61 5 0.0 0.0 0.00 0.00 0.00 93 1010.4
20260901091629 61 5 0.0 0.0 0.00 0.00 0.00 93 1010.5
20260901090045 61 5 0.0 0.0 0.00 0.00 0.00 93 1010.5
20260901084505 61 5 0.0 0.0 0.00 0.00 0.00 93 1010.4
20260901083055 61 5 0.0 0.0 0.00 0.00 0.00 93 1010.5
20260901081517 62 5 0.0 0.0 0.00 0.00 0.00 92 1010.4
20260901080114 62 5 0.0 0.0 0.00 0.00 0.00 92 1010.7
20260901074543 62 5 0.0 0.0 0.00 0.00 0.00 93 1010.9
20260901073125 62 5 0.0 0.0 0.00 0.00 0.00 92 1011.0
20260901071600 63 9 0.0 0.0 0.00 0.00 0.00 92 1010.8
20260901070049 63 5 0.0 0.0 0.00 0.00 0.00 92 1010.9
20260901064509 63 5 0.0 0.0 0.00 0.00 0.00 92 1010.9
20260901063117 63 5 0.0 0.0 0.00 0.00 0.00 92 1011.0
20260901061516 64 5 0.0 0.0 0.00 0.00 0.00 91 1010.8
20260901060111 64 5 0.0 0.0 0.00 0.00 0.00 91 1010.9
20260901054530 64 5 0.0 0.0 0.00 0.00 0.00 91 1010.9
20260901053132 65 5 0.0 0.0 0.00 0.00 0.00 91 1010.8
20260901051557 65 5 0.0 0.0 0.00 0.00 0.00 91 1010.7
20260901050002 65 5 0.0 0.0 0.00 0.00 0.00 91 1010.6
20260901044555 66 5 0.0 0.0 0.00 0.00 0.00 90 1010.4
20260901043008 66 5 0.0 0.0 0.00 0.00 0.00 90 1010.3
20260901041614 66 5 0.0 0.0 0.00 0.00 0.00 89 1010.3
20260901040021 67 5 0.0 0.0 0.00 0.00 0.00 89 1010.4
20260901034617 67 5 0.0 0.0 0.00 0.00 0.00 89 1010.3
20260901033029 68 5 0.0 0.0 0.00 0.00 0.00 89 1010.0
20260901031622 68 5 0.0 0.0 0.00 0.00 0.00 88 1010.0
20260901030051 69 5 0.0 0.0 0.00 0.00 0.00 88 1010.1
20260901024515 69 5 0.0 0.0 0.00 0.00 0.00 87 1009.9
20260901023111 70 5 0.0 1.0 0.00 0.00 0.00 86 1009.9
20260901021533 71 5 0.0 0.0 0.00 0.00 0.00 85 1009.9
20260901020120 72 5 0.0 0.0 0.00 0.00 0.00 84 1009.8
20260901014546 73 5 0.0 1.0 0.00 0.00 0.00 82 1009.7
20260901013003 74 5 0.0 0.0 0.00 0.00 0.00 80 1009.4
20260901011557 76 5 0.0 0.0 0.00 0.00 0.00 79 1009.2
20260901010019 77 5 0.0 1.0 0.00 0.00 0.00 77 1009.2
20260901004621 79 5 0.0 1.0 0.00 0.00 0.00 76 1009.1
20260901003044 80 5 0.0 1.0 0.00 0.00 0.00 75 1009.0
20260901001627 80 5 0.0 0.0 0.00 0.00 0.00 69 1008.9
20260901000051 81 5 0.0 1.0 0.00 0.00 0.00 63 1008.8
20260831234508 82 5 0.0 2.0 0.00 0.00 0.00 62 1009.0
20260831233121 82 5 0.0 0.0 0.00 0.00 0.00 62 1008.9
20260831231525 83 5 0.0 1.0 0.00 0.00 0.00 58 1008.8
20260831230125 84 5 0.0 2.0 0.00 0.00 0.00 55 1008.7
20260831224549 84 5 1.0 3.0 0.00 0.00 0.00 57 1008.6
20260831223007 84 5 0.0 5.0 0.00 0.00 0.00 56 1008.6
20260831221603 84 5 0.0 3.0 0.00 0.00 0.00 56 1008.5
20260831220020 85 5 0.0 3.0 0.00 0.00 0.00 60 1008.4
20260831214620 85 5 0.0 4.0 0.00 0.00 0.00 58 1008.4
20260831213041 86 5 1.0 4.0 0.00 0.00 0.00 57 1008.2
20260831211633 87 5 0.0 3.0 0.00 0.00 0.00 59 1008.4
20260831210052 87 5 1.0 4.0 0.00 0.00 0.00 58 1008.4
20260831204520 87 5 0.0 8.0 0.00 0.00 0.00 56 1008.4
20260831203128 87 5 0.0 5.0 0.00 0.00 0.00 59 1008.2
20260831201525 86 5 1.0 5.0 0.00 0.00 0.00 59 1008.3
20260831200114 86 5 1.0 5.0 0.00 0.00 0.00 64 1008.1
20260831194531 86 5 1.0 4.0 0.00 0.00 0.00 63 1008.1
20260831193136 86 5 0.0 4.0 0.00 0.00 0.00 66 1008.2
20260831191554 85 5 1.0 4.0 0.00 0.00 0.00 67 1008.1
20260831190045 85 5 0.0 3.0 0.00 0.00 0.00 70 1008.1
20260831184502 84 5 0.0 4.0 0.00 0.00 0.00 73 1008.1
20260831183054 82 5 0.0 4.0 0.00 0.00 0.00 77 1008.2
20260831181513 81 5 0.0 3.0 0.00 0.00 0.00 77 1008.3
20260831180106 79 5 0.0 3.0 0.00 0.00 0.00 84 1008.4
20260831174530 78 5 0.0 3.0 0.00 0.00 0.00 85 1008.6
20260831173120 77 5 0.0 3.0 0.00 0.00 0.00 87 1008.6
20260831171536 76 5 0.0 3.0 0.00 0.00 0.00 89 1008.8
20260831170126 75 5 0.0 1.0 0.00 0.00 0.00 90 1008.8
20260831164543 75 5 0.0 2.0 0.00 0.00 0.00 90 1008.7